When you browse on this site, cookies collect data to enhance your experience and personalize the content and advertising you see.
Visit our Privacy Policy to learn more. By continuing to use the site, you agree to this use of cookies and data.
  • In Schweiz
  • Länderverzeichnis
  • Für 7 Tage
  • Wassertemperatur
  • Wetterkarte
  • Widgets
  • user-avatar
    Anmelden

    Stündliche Wetter Toulon

    Heute, 4 Juni, Donnerstag

    Zeit Temperatur Niederschläge Wind Luftdruck Luftfeuchtigkeit
    00:00 +19°C° 0 mm 3 m/S 743 mmHg 87%
    01:00 +18°C° 1.2 mm 3 m/S 742 mmHg 88%
    02:00 +18°C° 1.2 mm 3 m/S 742 mmHg 90%
    03:00 +18°C° 1.2 mm 3 m/S 741 mmHg 92%
    04:00 +18°C° 1.8 mm 3 m/S 741 mmHg 92%
    05:00 +18°C° 1.8 mm 4 m/S 740 mmHg 91%
    06:00 +18°C° 1.8 mm 4 m/S 740 mmHg 91%
    07:00 +18°C° 1.5 mm 4 m/S 740 mmHg 91%
    08:00 +18°C° 1.5 mm 3 m/S 740 mmHg 92%
    09:00 +18°C° 1.5 mm 2 m/S 740 mmHg 92%
    10:00 +18°C° 2.3 mm 3 m/S 740 mmHg 93%
    11:00 +18°C° 2.3 mm 4 m/S 739 mmHg 93%
    12:00 +17°C° 2.3 mm 5 m/S 739 mmHg 93%
    13:00 +17°C° 1.5 mm 5 m/S 739 mmHg 87%
    14:00 +17°C° 1.5 mm 5 m/S 739 mmHg 80%
    15:00 +19°C° 1.5 mm 6 m/S 738 mmHg 73%
    16:00 +19°C° 0 mm 6 m/S 738 mmHg 72%
    17:00 +19°C° 0 mm 6 m/S 738 mmHg 70%
    18:00 +19°C° 0 mm 6 m/S 738 mmHg 69%
    19:00 +18°C° 0.1 mm 7 m/S 739 mmHg 70%
    20:00 +17°C° 0.1 mm 8 m/S 739 mmHg 70%
    21:00 +17°C° 0.1 mm 9 m/S 739 mmHg 71%
    22:00 +17°C° 0 mm 9 m/S 739 mmHg 70%
    23:00 +16°C° 0 mm 9 m/S 739 mmHg 70%

    Morgen, 5 Juni, Freitag

    Zeit Temperatur Niederschläge Wind Luftdruck Luftfeuchtigkeit
    00:00 +16°C° 0 mm 9 m/S 739 mmHg 70%
    01:00 +16°C° 0 mm 10 m/S 739 mmHg 68%
    02:00 +16°C° 0 mm 11 m/S 739 mmHg 66%
    03:00 +16°C° 0 mm 11 m/S 738 mmHg 64%
    04:00 +15°C° 0 mm 12 m/S 739 mmHg 62%
    05:00 +15°C° 0 mm 13 m/S 739 mmHg 59%
    06:00 +17°C° 0 mm 14 m/S 740 mmHg 56%
    07:00 +18°C° 0 mm 14 m/S 740 mmHg 54%
    08:00 +18°C° 0 mm 14 m/S 740 mmHg 51%
    09:00 +19°C° 0 mm 14 m/S 741 mmHg 49%
    10:00 +20°C° 0 mm 14 m/S 741 mmHg 46%
    11:00 +22°C° 0 mm 13 m/S 741 mmHg 44%
    12:00 +23°C° 0 mm 13 m/S 742 mmHg 41%
    13:00 +23°C° 0 mm 13 m/S 742 mmHg 41%
    14:00 +24°C° 0 mm 13 m/S 742 mmHg 41%
    15:00 +24°C° 0 mm 13 m/S 742 mmHg 41%
    16:00 +23°C° 0 mm 12 m/S 742 mmHg 43%
    17:00 +22°C° 0 mm 12 m/S 742 mmHg 45%
    18:00 +22°C° 0 mm 12 m/S 742 mmHg 48%
    19:00 +21°C° 0 mm 11 m/S 743 mmHg 50%
    20:00 +19°C° 0 mm 11 m/S 744 mmHg 53%
    21:00 +18°C° 0 mm 11 m/S 745 mmHg 56%
    22:00 +18°C° 0 mm 10 m/S 745 mmHg 58%
    23:00 +18°C° 0 mm 10 m/S 745 mmHg 60%

    übermorgen, 6 Juni, Samstag

    Zeit Temperatur Niederschläge Wind Luftdruck Luftfeuchtigkeit
    00:00 +17°C° 0 mm 10 m/S 745 mmHg 62%
    01:00 +17°C° 0 mm 10 m/S 745 mmHg 63%
    02:00 +17°C° 0 mm 9 m/S 745 mmHg 65%
    03:00 +16°C° 0 mm 9 m/S 745 mmHg 66%
    04:00 +17°C° 0 mm 9 m/S 745 mmHg 66%
    05:00 +17°C° 0 mm 9 m/S 746 mmHg 66%
    06:00 +18°C° 0 mm 9 m/S 746 mmHg 66%
    07:00 +19°C° 0 mm 9 m/S 746 mmHg 60%
    08:00 +22°C° 0 mm 8 m/S 746 mmHg 55%
    09:00 +23°C° 0 mm 8 m/S 746 mmHg 49%
    10:00 +24°C° 0 mm 8 m/S 746 mmHg 48%
    11:00 +26°C° 0 mm 8 m/S 746 mmHg 46%
    12:00 +27°C° 0 mm 8 m/S 746 mmHg 45%
    13:00 +27°C° 0 mm 8 m/S 746 mmHg 46%
    14:00 +26°C° 0 mm 8 m/S 746 mmHg 48%
    15:00 +26°C° 0 mm 8 m/S 745 mmHg 49%
    16:00 +24°C° 0 mm 7 m/S 745 mmHg 53%
    17:00 +23°C° 0 mm 7 m/S 745 mmHg 57%
    18:00 +22°C° 0 mm 7 m/S 745 mmHg 62%
    19:00 +21°C° 0 mm 6 m/S 745 mmHg 67%
    20:00 +21°C° 0 mm 6 m/S 745 mmHg 72%
    21:00 +20°C° 0 mm 6 m/S 746 mmHg 77%
    22:00 +20°C° 0 mm 5 m/S 746 mmHg 78%
    23:00 +19°C° 0 mm 5 m/S 745 mmHg 79%

    7 Juni, Sonntag

    Zeit Temperatur Niederschläge Wind Luftdruck Luftfeuchtigkeit
    00:00 +19°C° 0 mm 5 m/S 745 mmHg 80%
    01:00 +19°C° 0.1 mm 5 m/S 745 mmHg 80%
    02:00 +17°C° 0.1 mm 5 m/S 745 mmHg 80%
    03:00 +17°C° 0.1 mm 5 m/S 745 mmHg 80%
    04:00 +19°C° 0.2 mm 5 m/S 745 mmHg 80%
    05:00 +19°C° 0.2 mm 6 m/S 745 mmHg 79%
    06:00 +20°C° 0.2 mm 6 m/S 745 mmHg 79%
    07:00 +20°C° 0 mm 5 m/S 745 mmHg 74%
    08:00 +21°C° 0 mm 5 m/S 746 mmHg 69%
    09:00 +21°C° 0 mm 5 m/S 746 mmHg 63%
    10:00 +21°C° 0 mm 6 m/S 746 mmHg 62%
    11:00 +21°C° 0 mm 7 m/S 746 mmHg 60%
    12:00 +21°C° 0 mm 8 m/S 746 mmHg 59%
    13:00 +21°C° 0 mm 7 m/S 746 mmHg 61%
    14:00 +21°C° 0 mm 6 m/S 745 mmHg 63%
    15:00 +20°C° 0 mm 5 m/S 745 mmHg 65%
    16:00 +20°C° 0 mm 6 m/S 745 mmHg 63%
    17:00 +21°C° 0 mm 6 m/S 745 mmHg 62%
    18:00 +21°C° 0 mm 7 m/S 745 mmHg 61%
    19:00 +20°C° 0 mm 6 m/S 745 mmHg 63%
    20:00 +19°C° 0 mm 6 m/S 746 mmHg 65%
    21:00 +17°C° 0 mm 5 m/S 746 mmHg 68%
    22:00 +17°C° 0 mm 6 m/S 746 mmHg 65%
    23:00 +17°C° 0 mm 6 m/S 746 mmHg 63%

    8 Juni, Montag

    Zeit Temperatur Niederschläge Wind Luftdruck Luftfeuchtigkeit
    00:00 +17°C° 0 mm 6 m/S 746 mmHg 61%
    01:00 +16°C° 0 mm 6 m/S 746 mmHg 62%
    02:00 +16°C° 0 mm 7 m/S 745 mmHg 62%
    03:00 +15°C° 0 mm 7 m/S 745 mmHg 63%
    04:00 +16°C° 0 mm 7 m/S 746 mmHg 60%
    05:00 +16°C° 0 mm 7 m/S 746 mmHg 57%
    06:00 +16°C° 0 mm 7 m/S 746 mmHg 53%
    07:00 +18°C° 0 mm 8 m/S 746 mmHg 49%
    08:00 +19°C° 0 mm 9 m/S 746 mmHg 44%
    09:00 +21°C° 0 mm 9 m/S 747 mmHg 39%
    10:00 +22°C° 0 mm 10 m/S 747 mmHg 38%
    11:00 +23°C° 0 mm 10 m/S 747 mmHg 37%
    12:00 +24°C° 0 mm 10 m/S 747 mmHg 35%
    13:00 +24°C° 0 mm 10 m/S 746 mmHg 35%
    14:00 +24°C° 0 mm 11 m/S 746 mmHg 35%
    15:00 +24°C° 0 mm 11 m/S 746 mmHg 35%
    16:00 +23°C° 0 mm 10 m/S 746 mmHg 37%
    17:00 +23°C° 0 mm 10 m/S 746 mmHg 39%
    18:00 +22°C° 0 mm 10 m/S 746 mmHg 41%
    19:00 +21°C° 0 mm 9 m/S 747 mmHg 42%
    20:00 +19°C° 0 mm 9 m/S 747 mmHg 44%
    21:00 +18°C° 0 mm 9 m/S 747 mmHg 46%
    22:00 +17°C° 0 mm 8 m/S 747 mmHg 51%
    23:00 +16°C° 0 mm 8 m/S 748 mmHg 55%

    9 Juni, Dienstag

    Zeit Temperatur Niederschläge Wind Luftdruck Luftfeuchtigkeit
    00:00 +16°C° 0 mm 8 m/S 748 mmHg 60%
    01:00 +15°C° 0 mm 7 m/S 747 mmHg 63%
    02:00 +15°C° 0 mm 7 m/S 747 mmHg 66%
    03:00 +14°C° 0 mm 6 m/S 747 mmHg 70%
    04:00 +15°C° 0 mm 6 m/S 748 mmHg 67%
    05:00 +15°C° 0 mm 6 m/S 748 mmHg 65%
    06:00 +16°C° 0 mm 6 m/S 748 mmHg 63%
    07:00 +18°C° 0 mm 7 m/S 748 mmHg 57%
    08:00 +20°C° 0 mm 7 m/S 748 mmHg 51%
    09:00 +22°C° 0 mm 7 m/S 749 mmHg 45%
    10:00 +23°C° 0 mm 8 m/S 749 mmHg 43%
    11:00 +24°C° 0 mm 8 m/S 749 mmHg 40%
    12:00 +26°C° 0 mm 9 m/S 749 mmHg 38%
    13:00 +26°C° 0 mm 9 m/S 749 mmHg 38%
    14:00 +26°C° 0 mm 9 m/S 749 mmHg 37%
    15:00 +26°C° 0 mm 9 m/S 749 mmHg 37%
    16:00 +24°C° 0 mm 9 m/S 749 mmHg 38%
    17:00 +23°C° 0 mm 8 m/S 749 mmHg 39%
    18:00 +22°C° 0 mm 8 m/S 749 mmHg 40%
    19:00 +21°C° 0 mm 8 m/S 749 mmHg 43%
    20:00 +20°C° 0 mm 7 m/S 750 mmHg 45%
    21:00 +18°C° 0 mm 7 m/S 750 mmHg 47%
    22:00 +17°C° 0 mm 7 m/S 750 mmHg 51%
    23:00 +17°C° 0 mm 7 m/S 750 mmHg 55%
    Mehr zeigen